Flag for Germany Weather past 2 weeks in Gladbeck, North Rhine-Westphalia, Germany

Now
68 °F

Scattered clouds.


Feels Like: 68 °F
Forecast: 53 / 77 °F
Wind: 3 mph from Southwest

Location: Duesseldorf

Current Time: Aug 28, 2015 at 8:16:53 PM

Latest Report: Aug 28, 2015 at 7:00 PM


Visibility: 25 mi

Pressure: 30.11 "Hg

Humidity: 60%

Dew point: 54 °F

Location of GladbeckLocation

Historic Weather in Gladbeck — Graph

°F

Gladbeck temperature yesterday

Maximum temperature yesterday: 74 °F (at 12:00 AM)
Minimum temperature yesterday: 56 °F (at 8:00 PM)
Average temperature yesterday: 64 °F

Past Weeks' High & Low Weather Summary

 TemperatureHumidityPressure
High86 °F (Aug 13, 7:00 PM)98% (Aug 19, 5:00 AM)30.26 "Hg (Aug 19, 5:00 AM)
Low49 °F (Aug 19, 5:00 AM)33% (Aug 23, 2:00 PM)29.53 "Hg (Aug 24, 6:00 PM)
Average65 °F73%29.94 "Hg
* Reported Aug 13 7:00 PM — Aug 28 7:00 PM, Gladbeck, Weather by CustomWeather, © 2015

Note: Actual official high and low records may vary slightly from our data, if they occured in-between our weather recording intervals... More about our weather records

Advertising

Gladbeck weather history for previous 24 hours

 ConditionsComfort  
Time TempWeatherWind HumidityBarometerVisibility
7:00 PM
Fri, Aug 28
68 °FScattered clouds.3 mph60%30.11 "Hg25 mi
6:00 PM69 °FPassing clouds.3 mph54%30.11 "Hg25 mi
4:00 PM68 °FScattered clouds.3 mph59%30.10 "Hg25 mi
3:00 PM69 °FScattered clouds.5 mph61%30.09 "Hg22 mi
2:00 PM68 °FScattered clouds.3 mph62%30.08 "Hg22 mi
1:00 PM67 °FScattered clouds.5 mph64%30.07 "Hg22 mi
12:00 PM64 °FScattered clouds.3 mph70%30.06 "Hg22 mi
10:00 AM60 °FPassing clouds.3 mph80%30.03 "Hg15 mi
9:00 AM59 °FPassing clouds.5 mph85%30.03 "Hg11 mi
8:00 AM57 °FPassing clouds.3 mph90%30.01 "Hg7 mi
7:00 AM57 °FPartly sunny.5 mph91%29.99 "Hg7 mi
5:00 AM56 °FLow clouds.2 mph94%29.97 "Hg16 mi
4:00 AM57 °FLow clouds.2 mph93%29.96 "Hg19 mi
3:00 AM57 °FLow clouds.2 mph95%29.94 "Hg12 mi
2:00 AM56 °FLow clouds.3 mph94%29.93 "Hg9 mi
1:00 AM56 °FLow clouds.2 mph95%29.92 "Hg9 mi
10:00 PM
Thu, Aug 27
56 °FLight rain. Low clouds.2 mph96%29.90 "Hg5 mi
9:00 PM56 °FLight rain. Low clouds.2 mph95%29.89 "Hg6 mi
8:00 PM56 °FLight rain. Overcast.3 mph95%29.88 "Hg6 mi
Weather by CustomWeather, © 2015

See weather overviewHow to use our weather pages